User: anonymous   Login
Location: Waning Moon II Observatory
(30.3730°N, 89.7620°W)
Time: 04:55:39
(UTC-06:00)
Language:

Cosmos 1825 Rocket - Orbit

View from above orbital plane
View from above orbital plane
View from above satellite
View from above satellite

Ground track
Ground track

The orbit data is extracted from the following two-line orbital elements,

1 17567U 87024B   17017.04760286  .00000068  00000-0  52814-5 0  9995
2 17567  82.5302 340.4767 0020543 122.3577 237.9631 14.83632700614051
Epoch (UTC): 17 January 2017 01:08:32
Eccentricity: 0.0020543
inclination: 82.5302°
perigee height: 603 km
apogee height: 632 km
right ascension of ascending node: 340.4767°
argument of perigee: 122.3577°
revolutions per day: 14.83632700
mean anomaly at epoch: 237.9631°
orbit number at epoch: 61405

The dashed part of the orbit path shows where the satellite is in the earth's shadow,  

DLR